This is the latest recevied weather packets stored in our database for station/object KB0RPJ. If no packets are shown the sender has not sent any weather packets the latest 10 day(s).
| Time | Temp. | Humidity | Pressure | Rain* | Wind** | Luminosity | Snow |
|---|---|---|---|---|---|---|---|
| 1778016606 | 13.33° C | 50% | 1010.6 hPa | 0 mm | - | 120 W/m² | - |
| 1778016305 | 13.33° C | 51% | 1010.6 hPa | 0 mm | - | 155 W/m² | - |
| 1778016005 | 13.33° C | 49% | 1010.6 hPa | 0 mm | - | 143 W/m² | - |
| 1778015719 | 13.33° C | 49% | 1010.7 hPa | 0 mm | - | 163 W/m² | - |
| 1778015405 | 13.33° C | 51% | 1010.7 hPa | 0 mm | - | 170 W/m² | - |
| 1778015105 | 12.78° C | 49% | 1010.6 hPa | 0 mm | - | 162 W/m² | - |
| 1778014804 | 12.78° C | 48% | 1010.6 hPa | 0 mm | - | 160 W/m² | - |
| 1778014506 | 13.33° C | 47% | 1010.7 hPa | 0 mm | - | 169 W/m² | - |
| 1778014208 | 13.33° C | 49% | 1010.8 hPa | 0 mm | - | 145 W/m² | - |
| 1778013905 | 13.33° C | 49% | 1010.8 hPa | 0 mm | - | 136 W/m² | - |
| 1778013605 | 13.33° C | 49% | 1010.8 hPa | 0 mm | - | 237 W/m² | - |
| 1778013304 | 12.78° C | 49% | 1010.9 hPa | 0 mm | - | 208 W/m² | - |
| 1778013005 | 12.78° C | 49% | 1011 hPa | 0 mm | - | 220 W/m² | - |
| 1778012704 | 12.78° C | 49% | 1011 hPa | 0 mm | - | 191 W/m² | - |
| 1778012405 | 12.78° C | 48% | 1011 hPa | 0 mm | - | 187 W/m² | - |
| 1778012104 | 12.78° C | 50% | 1010.9 hPa | 0 mm | - | 196 W/m² | - |
| 1778011805 | 12.78° C | 49% | 1010.9 hPa | 0 mm | - | 164 W/m² | - |
| 1778011505 | 12.78° C | 51% | 1011 hPa | 0 mm | - | 170 W/m² | - |
| 1778011204 | 12.78° C | 47% | 1011.1 hPa | 0 mm | - | 192 W/m² | - |
| 1778010905 | 12.78° C | 47% | 1011.3 hPa | 0 mm | - | 212 W/m² | - |
| 1778010606 | 13.33° C | 49% | 1011.2 hPa | 0 mm | - | 209 W/m² | - |
| 1778010306 | 13.33° C | 46% | 1011.2 hPa | 0 mm | - | 218 W/m² | - |
| 1778010006 | 13.33° C | 48% | 1011.1 hPa | 0 mm | - | 227 W/m² | - |
| 1778009705 | 13.33° C | 48% | 1011.1 hPa | 0 mm | - | 236 W/m² | - |
| 1778009406 | 13.33° C | 48% | 1011.3 hPa | 0 mm | - | 299 W/m² | - |
* Rain latest hour (hover to see other rain measurements)
** Current wind speed in m/s (hover to see current wind gust speed)